Regional Weather Roundup
Issued by NWS

Home | Current Version | Previous Version | Text Only | Print | Product List | Glossary Off
Versions: 1 2 3 4 5 6 7 8 9 10 11 12 13 14 15 16 17 18 19 20 21 22 23 24 25 26 27 28 29 30 31 32 33 34 35 36 37 38 39 40 41 42 43 44 45 46 47 48 49 50

000
ASUS45 KBOI 271210
RWRID
WEATHER ROUNDUP FOR IDAHO
NATIONAL WEATHER SERVICE BOISE ID
600 AM MDT MON APR 27 2015

NOTE: "FAIR" INDICATES FEW OR NO CLOUDS BELOW 12000 FEET
WITH NO SIGNIFICANT WEATHER AND/OR OBSTRUCTIONS TO VISIBILITY

IDZ012-014-271300-
SOUTHWEST IDAHO


CITY           SKY/WX    TMP DP  RH WIND       PRES   REMARKS
BOISE          CLEAR     37  26  64 CALM      30.27R
CALDWELL       CLEAR     36  21  55 W7        30.30R WCI  30
MOUNTAIN HOME  CLEAR     37  24  60 W13       30.24S WCI  29
$$

IDZ016-017-271300-
SOUTHCENTRAL IDAHO


CITY           SKY/WX    TMP DP  RH WIND       PRES   REMARKS
BURLEY         CLEAR     30  21  69 S3        30.24R
JEROME         CLEAR     33  19  56 SE6       30.24S WCI  28
TWIN FALLS     CLEAR     37  20  50 S12       30.24R WCI  29
$$

IDZ019>023-271300-
SOUTHEAST IDAHO


CITY           SKY/WX    TMP DP  RH WIND       PRES   REMARKS
IDAHO FALLS    CLEAR     31  28  89 CALM      30.25R
POCATELLO      CLEAR     34  25  69 S7        30.26R WCI  28
REXBURG        CLEAR     32  30  92 E3        30.25R
$$

IDZ006-010-011-018-031-032-271300-
CENTRAL IDAHO MOUNTAINS


CITY           SKY/WX    TMP DP  RH WIND       PRES   REMARKS
MCCALL         PTCLDY    25  20  81 CALM      30.28S
HAILEY         CLEAR     32  27  80 NW7       30.28R WCI  26
STANLEY          N/A     18  13  80 CALM      30.33R
SALMON         CLEAR     34  28  80 CALM      30.32S
CHALLIS        CLEAR     30  23  75 CALM      30.32R
$$

IDZ002-004-006-007-026-271300-
NORTHERN IDAHO


CITY           SKY/WX    TMP DP  RH WIND       PRES   REMARKS
LEWISTON       CLEAR     39  29  67 CALM      30.34R
LOWELL           N/A     35  33  92 NW3       30.42R
COEUR D`ALENE  CLEAR     32  27  80 E5        30.34R WCI  27
MULLAN PASS    CLEAR     32  20  61 SW5       30.28R WCI  27
$$



USA.gov is the U.S. government's official web portal to all federal, state and local government web resources and services.